Terug naar catalogus

STARLINK-2618

ActiefCommunicatieVLEO
NORAD 48693·PAYLOAD·🇺🇸 United States

Gelanceerd May 26, 2021 vanaf Cape Canaveral Space Force Station

Loading…

Volgende Passages (komende 24 uur)

TLE

VersSource: CelesTrak SupGP

Epoch: Sep 14, 2026, 13:56 UTC

1 48693C 21044BH  26257.58104167  .00017405  00000+0  55962-3 0  2578
2 48693  53.1565 276.1835 0001215  79.2864 109.6176 15.31697844    13

Volg STARLINK-2618 in realtime met AllMySat

Download on the App Store